Location: Unspecified
(0.0000°N, 0.0000°E)
Time: 07:22:07
(UTC+00:00)

Courier 1B - Pass Details

Date: 25 September 2023
Orbit: 962 x 1208 km, 28.3° (Epoch: 06 December)

Event Time Altitude Azimuth Distance (km) Brightness Sun altitude
Rises 00:06:13 0° 269° (W) 3,746 - -86.4°
Reaches altitude 10° 00:09:39 10° 254° (WSW) 2,758 - -85.5°
Maximum altitude 00:14:28 21° 207° (SSW) 2,039 - -84.3°
Drops below altitude 10° 00:19:12 10° 160° (SSE) 2,695 - -83.1°
Sets 00:22:33 0° 144° (SE) 3,636 - -82.3°
